Year,Month,Day,Hour,Minute,Value (Times are PST for temperature in C)
2016,11,22,13,27,9.80
2016,11,22,13,28,9.70
2016,11,22,13,29,9.70
2016,11,22,13,30,9.80
2016,11,22,13,31,9.80
2016,11,22,13,32,9.80
2016,11,22,13,33,9.80
2016,11,22,13,34,9.80
2016,11,22,13,35,9.80
2016,11,22,13,36,9.80
2016,11,22,13,37,9.90
2016,11,22,13,38,9.90
2016,11,22,13,39,9.90
2016,11,22,13,40,9.90
2016,11,22,13,41,9.90
2016,11,22,13,42,9.90
2016,11,22,13,43,9.90
2016,11,22,13,44,9.90
2016,11,22,13,45,9.90
2016,11,22,13,46,9.90
2016,11,22,13,47,9.90
2016,11,22,13,49,9.90
2016,11,22,13,51,9.90
2016,11,22,13,53,9.90
2016,11,22,13,54,9.90
2016,11,22,13,56,9.90
2016,11,22,13,57,9.90
2016,11,22,13,58,9.90
2016,11,22,13,59,9.90
2016,11,22,14,01,9.90
2016,11,22,14,02,9.90
2016,11,22,14,03,9.90
2016,11,22,14,04,9.90
2016,11,22,14,06,10.10
2016,11,22,14,07,10.10
2016,11,22,14,08,10.10
2016,11,22,14,09,10.10
2016,11,22,14,11,10.10
2016,11,22,14,12,10.10
2016,11,22,14,13,10.10
2016,11,22,14,14,10.10
2016,11,22,14,16,10.10
2016,11,22,14,17,10.10
2016,11,22,14,18,10.10
2016,11,22,14,19,10.10
2016,11,22,14,21,10.10
2016,11,22,14,22,10.10
2016,11,22,14,23,10.10
2016,11,22,14,24,10.10
2016,11,22,14,26,10.10
2016,11,22,14,27,10.10
2016,11,22,14,28,10.10
2016,11,22,14,29,10.10
2016,11,22,14,31,10.10
2016,11,22,14,32,10.10
2016,11,22,14,33,10.10
2016,11,22,14,34,10.10
2016,11,22,14,36,10.10
2016,11,22,14,37,10.10
2016,11,22,14,38,10.10
2016,11,22,14,39,10.10
2016,11,22,14,41,10.10
2016,11,22,14,42,10.10
2016,11,22,14,43,10.10
2016,11,22,14,44,10.10
2016,11,22,14,46,10.10
2016,11,22,14,47,10.10
2016,11,22,14,48,10.10
2016,11,22,14,49,10.10
2016,11,22,14,51,10.10
2016,11,22,14,52,10.10
2016,11,22,14,53,10.10
2016,11,22,14,54,10.10
2016,11,22,14,56,10.10
2016,11,22,14,57,10.10
2016,11,22,14,58,10.10
2016,11,22,14,59,10.20
2016,11,22,15,01,10.20
2016,11,22,15,02,10.20
2016,11,22,15,03,10.20
2016,11,22,15,04,10.20
2016,11,22,15,06,10.20
2016,11,22,15,07,10.20
2016,11,22,15,27,10.30
2016,11,22,15,28,10.30
2016,11,22,15,29,10.30
2016,11,22,15,30,10.30
2016,11,22,15,31,10.30
2016,11,22,15,32,10.30
2016,11,22,15,33,10.40
2016,11,22,15,34,10.40
2016,11,22,15,35,10.40
2016,11,22,15,36,10.40
2016,11,22,15,37,10.40
2016,11,22,15,38,10.40
2016,11,22,15,39,10.40
2016,11,22,15,40,10.40
2016,11,22,15,41,10.40
2016,11,22,15,42,10.40
2016,11,22,15,43,10.40
2016,11,22,15,44,10.40
2016,11,22,15,45,10.40
2016,11,22,15,46,10.40
2016,11,22,15,47,10.40
2016,11,22,15,49,10.40
2016,11,22,15,51,10.40
2016,11,22,15,52,10.40
2016,11,22,15,53,10.40
2016,11,22,15,54,10.40
2016,11,22,15,56,10.40
2016,11,22,15,57,10.40
2016,11,22,15,58,10.40
2016,11,22,15,59,10.40
2016,11,22,16,01,10.40
2016,11,22,16,02,10.40
2016,11,22,16,03,10.40
2016,11,22,16,04,10.40
2016,11,22,16,06,10.40
2016,11,22,16,07,10.40
2016,11,22,16,08,10.40
2016,11,22,16,09,10.40
2016,11,22,16,11,10.40
2016,11,22,16,12,10.40
2016,11,22,16,13,10.40
2016,11,22,16,14,10.40
2016,11,22,16,16,10.40
2016,11,22,16,17,10.30
2016,11,22,16,18,10.30
2016,11,22,16,19,10.30
2016,11,22,16,21,10.30
2016,11,22,16,22,10.30
2016,11,22,16,23,10.30
2016,11,22,16,24,10.30
2016,11,22,16,26,10.20
2016,11,22,16,27,10.20
2016,11,22,16,28,10.20
2016,11,22,16,29,10.20
2016,11,22,16,31,10.20
2016,11,22,16,32,10.20
2016,11,22,16,33,10.20
2016,11,22,16,34,10.20
2016,11,22,16,36,10.10
2016,11,22,16,37,10.10
2016,11,22,16,38,10.10
2016,11,22,16,39,10.10
2016,11,22,16,41,10.10
2016,11,22,16,42,10.10
2016,11,22,16,43,10.10
2016,11,22,16,44,10.10
2016,11,22,16,46,10.10
2016,11,22,16,47,10.10
2016,11,22,16,48,9.90
2016,11,22,16,49,9.90
2016,11,22,16,51,9.90
2016,11,22,16,52,9.90
2016,11,22,16,53,9.90
2016,11,22,16,54,9.90
2016,11,22,16,56,10.10
2016,11,22,16,57,10.10
2016,11,22,16,58,9.90
2016,11,22,16,59,9.90
2016,11,22,17,01,10.10
2016,11,22,17,02,10.10
2016,11,22,17,03,10.10
2016,11,22,17,04,10.10
2016,11,22,17,06,9.90
2016,11,22,17,07,9.90
2016,11,22,17,08,9.90
2016,11,22,17,09,10.10
2016,11,22,17,10,10.10
2016,11,22,17,11,10.10
2016,11,22,17,12,10.10
2016,11,22,17,13,10.10
2016,11,22,17,14,10.10
2016,11,22,17,15,10.10
2016,11,22,17,16,10.10
2016,11,22,17,17,10.10
2016,11,22,17,18,10.10
2016,11,22,17,19,10.10
2016,11,22,17,20,10.10
2016,11,22,17,21,10.10
2016,11,22,17,22,10.10
2016,11,22,17,23,10.10
2016,11,22,17,24,10.10
2016,11,22,17,25,10.10
2016,11,22,17,26,10.10
2016,11,22,17,27,10.10
2016,11,22,17,28,10.10
2016,11,22,17,29,10.10
2016,11,22,17,30,10.10
2016,11,22,17,31,10.10
2016,11,22,17,32,10.10
2016,11,22,17,33,10.10
2016,11,22,17,34,10.10
2016,11,22,17,35,10.10
2016,11,22,17,36,10.10
2016,11,22,17,37,10.10
2016,11,22,17,38,10.10
2016,11,22,17,39,10.20
2016,11,22,17,40,10.20
2016,11,22,17,41,10.20
2016,11,22,17,42,10.20
2016,11,22,17,43,10.20
2016,11,22,17,44,10.20
2016,11,22,17,45,10.30
2016,11,22,17,46,10.20
2016,11,22,17,47,10.20
2016,11,22,17,48,10.20
2016,11,22,17,49,10.20
2016,11,22,17,50,10.30
2016,11,22,17,51,10.30
2016,11,22,17,52,10.30
2016,11,22,17,53,10.30
2016,11,22,17,54,10.30
2016,11,22,17,55,10.30
2016,11,22,17,56,10.30
2016,11,22,17,57,10.20
2016,11,22,17,58,10.20
2016,11,22,17,59,10.30
2016,11,22,18,00,10.30
2016,11,22,18,01,10.30
2016,11,22,18,02,10.30
2016,11,22,18,03,10.30
2016,11,22,18,04,10.30
2016,11,22,18,05,10.30
2016,11,22,18,06,10.20
2016,11,22,18,07,10.20
2016,11,22,18,08,10.20
2016,11,22,18,09,10.20
2016,11,22,18,10,10.20
2016,11,22,18,11,10.20
2016,11,22,18,12,10.20
2016,11,22,18,13,10.20
2016,11,22,18,14,10.20
2016,11,22,18,15,10.20
2016,11,22,18,16,10.20
2016,11,22,18,17,10.20
2016,11,22,18,18,10.20
2016,11,22,18,19,10.20
2016,11,22,18,20,10.10
2016,11,22,18,21,10.10
2016,11,22,18,22,10.10
2016,11,22,18,23,10.10
2016,11,22,18,24,10.10
2016,11,22,18,25,10.10
2016,11,22,18,26,10.10
2016,11,22,18,28,10.10
2016,11,22,18,29,10.10
2016,11,22,18,31,10.10
2016,11,22,18,32,10.10
2016,11,22,18,33,10.10
2016,11,22,18,34,10.10
2016,11,22,18,36,10.10
2016,11,22,18,37,10.10
2016,11,22,18,38,10.10
2016,11,22,18,39,10.10
2016,11,22,18,41,10.10
2016,11,22,18,42,10.10
2016,11,22,18,43,10.20
2016,11,22,18,44,10.20
2016,11,22,18,46,10.20
2016,11,22,18,47,10.20
2016,11,22,18,48,10.20
2016,11,22,18,49,10.20
2016,11,22,18,51,10.30
2016,11,22,18,52,10.30
2016,11,22,18,53,10.30
2016,11,22,18,54,10.30
2016,11,22,18,56,10.40
2016,11,22,18,57,10.30
2016,11,22,18,58,10.30
2016,11,22,18,59,10.30
2016,11,22,19,01,10.30
2016,11,22,19,02,10.30
2016,11,22,19,03,10.30
2016,11,22,19,04,10.30
2016,11,22,19,06,10.30
2016,11,22,19,07,10.30
2016,11,22,19,08,10.30
2016,11,22,19,09,10.30
2016,11,22,19,11,10.30
2016,11,22,19,12,10.30
2016,11,22,19,13,10.30
2016,11,22,19,14,10.30
2016,11,22,19,16,10.20
2016,11,22,19,17,10.20
2016,11,22,19,18,10.10
2016,11,22,19,19,10.10
2016,11,22,19,21,10.10
2016,11,22,19,22,10.10
2016,11,22,19,23,9.90
2016,11,22,19,24,9.90
2016,11,22,19,26,9.90
2016,11,22,19,27,9.90
2016,11,22,19,28,9.90
2016,11,22,19,29,9.90
2016,11,22,19,31,9.90
2016,11,22,19,32,9.90
2016,11,22,19,33,9.90
2016,11,22,19,34,9.90
2016,11,22,19,36,9.90
2016,11,22,19,37,9.90
2016,11,22,19,38,9.90
2016,11,22,19,39,9.90
2016,11,22,19,41,9.80
2016,11,22,19,42,9.80
2016,11,22,19,43,9.80
2016,11,22,19,44,9.80
2016,11,22,19,46,9.80
2016,11,22,19,47,9.80
2016,11,22,19,48,9.80
2016,11,22,19,49,9.80
2016,11,22,19,51,9.80
2016,11,22,19,52,9.80
2016,11,22,19,53,9.90
2016,11,22,19,54,9.90
2016,11,22,19,55,9.90
2016,11,22,19,56,9.90
2016,11,22,19,57,9.90
2016,11,22,19,58,9.90
2016,11,22,19,59,9.90
2016,11,22,20,00,9.90
2016,11,22,20,01,9.90
2016,11,22,20,02,9.90
2016,11,22,20,03,9.90
2016,11,22,20,04,9.90
2016,11,22,20,06,9.90
2016,11,22,20,07,9.90
2016,11,22,20,08,9.90
2016,11,22,20,09,9.90
2016,11,22,20,10,9.90
2016,11,22,20,11,9.90
2016,11,22,20,12,9.90
2016,11,22,20,13,9.90
2016,11,22,20,14,9.90
2016,11,22,20,15,9.80
2016,11,22,20,16,9.70
2016,11,22,20,17,9.70
2016,11,22,20,18,9.60
2016,11,22,20,19,9.50
2016,11,22,20,20,9.30
2016,11,22,20,21,9.20
2016,11,22,20,22,9.20
2016,11,22,20,23,9.10
2016,11,22,20,24,9.00
2016,11,22,20,25,8.90
2016,11,22,20,26,8.80
2016,11,22,20,27,8.70
2016,11,22,20,28,8.70
2016,11,22,20,29,8.70
2016,11,22,20,30,8.60
2016,11,22,20,31,8.60
2016,11,22,20,32,8.60
2016,11,22,20,33,8.50
2016,11,22,20,34,8.50
2016,11,22,20,35,8.50
2016,11,22,20,36,8.40
2016,11,22,20,37,8.40
2016,11,22,20,38,8.30
2016,11,22,20,39,8.30
2016,11,22,20,40,8.20
2016,11,22,20,41,8.20
2016,11,22,20,42,8.20
2016,11,22,20,43,8.20
2016,11,22,20,44,8.10
2016,11,22,20,45,8.10
2016,11,22,20,46,8.00
2016,11,22,20,47,8.00
2016,11,22,20,48,7.90
2016,11,22,20,49,7.90
2016,11,22,20,50,7.90
2016,11,22,20,51,7.80
2016,11,22,20,52,7.80
2016,11,22,20,53,7.80
2016,11,22,20,54,7.80
2016,11,22,20,55,7.80
2016,11,22,20,56,7.70
2016,11,22,20,57,7.70
2016,11,22,20,58,7.70
2016,11,22,20,59,7.60
2016,11,22,21,00,7.60
2016,11,22,21,01,7.60
2016,11,22,21,02,7.60
2016,11,22,21,03,7.60
2016,11,22,21,04,7.50
2016,11,22,21,05,7.50
2016,11,22,21,06,7.50
2016,11,22,21,07,7.50
2016,11,22,21,08,7.40
2016,11,22,21,09,7.40
2016,11,22,21,10,7.40
2016,11,22,21,12,7.40
2016,11,22,21,13,7.40
2016,11,22,21,14,7.40
2016,11,22,21,16,7.40
2016,11,22,21,17,7.40
2016,11,22,21,18,7.30
2016,11,22,21,19,7.30
2016,11,22,21,21,7.30
2016,11,22,21,22,7.30
2016,11,22,21,23,7.30
2016,11,22,21,24,7.30
2016,11,22,21,26,7.30
2016,11,22,21,27,7.30
2016,11,22,21,28,7.30
2016,11,22,21,29,7.30
2016,11,22,21,31,7.30
2016,11,22,21,32,7.30
2016,11,22,21,33,7.30
2016,11,22,21,34,7.30
2016,11,22,21,36,7.30
2016,11,22,21,37,7.30
2016,11,22,21,38,7.30
2016,11,22,21,39,7.30
2016,11,22,21,41,7.30
2016,11,22,21,42,7.30
2016,11,22,21,43,7.30
2016,11,22,21,44,7.30
2016,11,22,21,46,7.30
2016,11,22,21,47,7.30
2016,11,22,21,48,7.30
2016,11,22,21,49,7.30
2016,11,22,21,51,7.30
2016,11,22,21,52,7.30
2016,11,22,21,53,7.30
2016,11,22,21,54,7.30
2016,11,22,21,56,7.30
2016,11,22,21,57,7.30
2016,11,22,21,58,7.30
2016,11,22,21,59,7.30
2016,11,22,22,01,7.30
2016,11,22,22,02,7.30
2016,11,22,22,03,7.30
2016,11,22,22,04,7.30
2016,11,22,22,06,7.30
2016,11,22,22,07,7.30
2016,11,22,22,08,7.30
2016,11,22,22,09,7.30
2016,11,22,22,11,7.30
2016,11,22,22,12,7.30
2016,11,22,22,13,7.30
2016,11,22,22,14,7.30
2016,11,22,22,16,7.30
2016,11,22,22,17,7.30
2016,11,22,22,18,7.30
2016,11,22,22,19,7.30
2016,11,22,22,21,7.30
2016,11,22,22,22,7.30
2016,11,22,22,23,7.30
2016,11,22,22,24,7.30
2016,11,22,22,26,7.30
2016,11,22,22,27,7.30
2016,11,22,22,28,7.30
2016,11,22,22,29,7.30
2016,11,22,22,30,7.30
2016,11,22,22,31,7.30
2016,11,22,22,32,7.30
2016,11,22,22,33,7.30
2016,11,22,22,34,7.30
2016,11,22,22,36,7.30
2016,11,22,22,37,7.30
2016,11,22,22,38,7.30
2016,11,22,22,39,7.30
2016,11,22,22,40,7.30
2016,11,22,22,41,7.30
2016,11,22,22,42,7.30
2016,11,22,22,43,7.30
2016,11,22,22,44,7.30
2016,11,22,22,45,7.30
2016,11,22,22,46,7.30
2016,11,22,22,47,7.30
2016,11,22,22,48,7.30
2016,11,22,22,49,7.30
2016,11,22,22,50,7.30
2016,11,22,22,51,7.40
2016,11,22,22,52,7.40
2016,11,22,22,53,7.40
2016,11,22,22,54,7.40
2016,11,22,22,55,7.40
2016,11,22,22,56,7.40
2016,11,22,22,57,7.40
2016,11,22,22,58,7.40
2016,11,22,22,59,7.40
2016,11,22,23,00,7.50
2016,11,22,23,01,7.50
2016,11,22,23,02,7.50
2016,11,22,23,03,7.50
2016,11,22,23,04,7.50
2016,11,22,23,05,7.50
2016,11,22,23,06,7.50
2016,11,22,23,07,7.50
2016,11,22,23,08,7.50
2016,11,22,23,09,7.50
2016,11,22,23,10,7.50
2016,11,22,23,11,7.50
2016,11,22,23,12,7.50
2016,11,22,23,13,7.50
2016,11,22,23,14,7.50
2016,11,22,23,15,7.60
2016,11,22,23,16,7.60
2016,11,22,23,17,7.60
2016,11,22,23,18,7.60
2016,11,22,23,19,7.60
2016,11,22,23,20,7.60
2016,11,22,23,21,7.60
2016,11,22,23,22,7.60
2016,11,22,23,23,7.60
2016,11,22,23,24,7.60
2016,11,22,23,25,7.60
2016,11,22,23,26,7.60
2016,11,22,23,27,7.60
2016,11,22,23,28,7.60
2016,11,22,23,29,7.60
2016,11,22,23,30,7.60
2016,11,22,23,31,7.60
2016,11,22,23,32,7.60
2016,11,22,23,33,7.60
2016,11,22,23,34,7.60
2016,11,22,23,35,7.60
2016,11,22,23,36,7.70
2016,11,22,23,37,7.70
2016,11,22,23,38,7.70
2016,11,22,23,39,7.70
2016,11,22,23,40,7.70
2016,11,22,23,41,7.70
2016,11,22,23,42,7.70
2016,11,22,23,43,7.70
2016,11,22,23,44,7.70
2016,11,22,23,45,7.70
2016,11,22,23,46,7.70
2016,11,22,23,47,7.70
2016,11,22,23,48,7.70
2016,11,22,23,49,7.70
2016,11,22,23,50,7.70
2016,11,22,23,51,7.70
2016,11,22,23,52,7.70
2016,11,22,23,53,7.70
2016,11,22,23,54,7.70
2016,11,22,23,56,7.70
2016,11,22,23,57,7.70
2016,11,22,23,58,7.70
2016,11,22,23,59,7.70
